Location: Asheville, NC
(35.6000°N, 82.5500°W)
Time: 18:31:00
(UTC-05:00)

Hubble Space Telescope - Visible Passes

Search period start: 12 December 2017 00:00
Search period end: 22 December 2017 00:00
Orbit: 538 x 541 km, 28.5° (Epoch: 11 December)

Date Brightness Start Highest point End Pass type
(mag) Time Alt. Az. Time Alt. Az. Time Alt. Az.
12 Dec 2.1 19:04:11 10° WSW 19:07:48 30° S 19:08:42 27° SSE visible
13 Dec 2.3 18:53:55 10° WSW 18:57:30 29° S 18:59:11 21° SSE visible
14 Dec 2.5 18:43:42 10° WSW 18:47:13 27° S 18:49:44 15° SE visible
15 Dec 2.7 18:33:30 10° WSW 18:36:54 25° S 18:40:19 10° SE visible
16 Dec 2.9 18:23:20 10° WSW 18:26:36 22° SSW 18:29:51 10° SE visible
17 Dec 3.1 18:13:15 10° WSW 18:16:16 20° SSW 18:19:18 10° SSE visible
18 Dec 3.4 18:03:14 10° WSW 18:05:56 17° SSW 18:08:40 10° SSE visible
19 Dec 3.6 17:53:20 10° SW 17:55:36 14° SSW 17:57:53 10° SSE visible
20 Dec 3.8 17:43:42 10° SW 17:45:14 12° SSW 17:46:47 10° S visible
